CDT,Max TemperatureF,Mean TemperatureF,Min TemperatureF,Max Dew PointF,MeanDew PointF,Min DewpointF,Max Humidity, Mean Humidity, Min Humidity, Max Sea Level PressureIn, Mean Sea Level PressureIn, Min Sea Level PressureIn, Max VisibilityMiles, Mean VisibilityMiles, Min VisibilityMiles, Max Wind SpeedMPH, Mean Wind SpeedMPH, Max Gust SpeedMPH,PrecipitationIn, CloudCover, Events, WindDirDegrees
2013-10-1,78,64,51,57,51,39,88,62,41,29.95,29.81,29.74,10,10,10,18,8,24,0.00,0,,235
2013-10-2,73,55,37,46,38,32,93,57,22,30.11,30.04,29.96,10,10,10,8,3,,0.00,0,,180
2013-10-3,71,61,51,61,52,41,100,81,57,29.98,29.93,29.88,10,10,5,12,4,28,0.18,6,Rain,60
2013-10-4,55,54,53,55,54,54,100,98,94,30.07,30.01,29.92,10,9,3,13,7,20,0.22,8,Rain,57
2013-10-5,62,58,55,63,58,55,100,98,94,30.03,29.88,29.70,10,7,0,13,8,20,1.13,8,Fog-Rain,71
2013-10-6,60,55,50,61,44,34,100,70,39,29.71,29.69,29.65,10,10,7,12,7,20,0.03,4,Rain,263
2013-10-7,64,52,39,46,41,34,100,70,34,30.06,29.85,29.66,10,10,7,17,8,26,0.01,2,Rain,296
2013-10-8,73,53,33,50,42,34,100,71,31,30.14,30.08,30.04,10,10,5,14,3,21,0.00,0,,179
2013-10-9,71,56,42,50,46,41,100,71,41,30.19,30.15,30.09,10,10,2,13,4,17,0.00,0,,182
2013-10-10,71,53,35,50,44,36,100,76,33,30.17,30.12,30.06,10,8,0,12,2,,0.00,1,Fog,148
2013-10-11,73,58,42,59,50,43,100,81,44,30.07,30.01,29.92,10,6,0,17,3,22,0.00,4,Fog,135
2013-10-12,69,60,50,59,49,36,94,66,33,30.11,29.93,29.87,10,10,7,20,9,26,0.01,5,Rain,208
2013-10-13,59,47,35,43,37,32,93,68,38,30.40,30.30,30.12,10,10,10,13,6,20,0.00,2,,291
2013-10-14,60,46,32,43,37,32,100,76,39,30.45,30.35,30.18,10,10,10,10,2,,0.00,0,,114
2013-10-15,55,48,41,55,49,41,100,93,77,30.17,29.87,29.70,10,7,2,15,7,20,0.59,6,Rain,148
2013-10-16,51,48,44,46,43,37,100,82,67,29.91,29.81,29.72,10,10,7,10,7,16,0.01,8,Rain,303
2013-10-17,53,44,35,41,37,34,100,75,47,29.91,29.82,29.76,10,10,7,9,3,,0.00,4,,262
2013-10-18,50,44,37,46,40,36,100,88,71,29.90,29.82,29.76,10,10,5,15,4,22,0.00,7,Rain,274
2013-10-19,51,40,30,39,34,28,100,85,43,29.88,29.75,29.67,10,8,0,21,2,28,0.00,4,Fog-Rain,241
2013-10-20,42,36,30,41,35,30,100,96,81,29.84,29.75,29.64,10,7,0,8,4,,0.03,6,Fog-Rain,236
2013-10-21,42,37,32,41,28,21,93,73,56,29.86,29.81,29.66,10,10,5,20,11,25,0.00,8,Rain,274
2013-10-22,44,37,30,30,27,21,93,69,42,29.95,29.89,29.82,10,10,10,13,8,18,0.00,4,,303
2013-10-23,44,37,30,28,24,21,86,66,39,29.98,29.94,29.90,10,10,10,16,6,21,0.00,7,,298
2013-10-24,44,36,28,32,26,23,86,70,49,30.24,30.10,29.98,10,10,10,21,8,26,0.00,6,Rain,294
2013-10-25,50,37,24,32,28,23,100,70,46,30.29,30.11,29.74,10,10,10,20,7,33,0.00,4,,238
2013-10-26,50,42,35,34,31,27,81,61,50,30.03,29.86,29.66,10,10,10,21,9,26,0.00,6,,314
2013-10-27,53,42,32,32,30,27,93,68,35,30.07,29.93,29.82,10,10,10,17,5,23,0.00,2,,251
2013-10-28,42,33,24,32,24,21,86,66,45,30.45,30.35,30.08,10,10,10,17,8,26,0.00,3,,45
2013-10-29,41,34,26,36,30,21,93,81,70,30.45,30.33,30.16,10,10,10,9,4,,0.00,6,,57
2013-10-30,51,45,39,52,43,36,100,89,76,30.15,30.00,29.74,10,6,0,12,2,,0.01,8,Fog-Rain,134
2013-10-31,53,48,44,54,52,43,100,100,93,29.74,29.41,29.20,10,3,0,20,2,25,0.57,8,Fog-Rain,277